Phoenix, AZ

2:01 PM MST on September 19, 2017 (GMT -0700)
Phoenix Sky Harbor International

Weather History for KPHX - February, 2014

Change the Weather History Date:

Thursday, February 6, 2014

  Actual Average Record
Temperature  
Mean Temperature 55 °F 58 °F  
Max Temperature 62 °F 69 °F 87 °F (1963)
Min Temperature 47 °F 48 °F 28 °F (1955)
Degree Days  
Heating Degree Days 10 7  
Month to date heating degree days 55 42  
Since 1 July heating degree days 524 712  
Cooling Degree Days 0 0  
Month to date cooling degree days 0 0  
Year to date cooling degree days 4 2  
Growing Degree Days 4 (Base 50)    
Moisture  
Dew Point 33 °F    
Average Humidity 44    
Maximum Humidity 56    
Minimum Humidity 32    
Precipitation  
Precipitation 0.00 in 0.03 in 0.92 in (1935)
Month to date precipitation 0.00 0.17  
Year to date precipitation 0.00 1.08  
Snow  
Snow 0.00 in - - ()
Month to date snowfall 0.0  
Year to date snowfall 0.0  
Since 1 July snowfall 0.0  
Snow Depth 0.00 in    
Sea Level Pressure  
Sea Level Pressure 29.97 in    
Wind  
Wind Speed 6 mph (ESE)    
Max Wind Speed 10 mph    
Max Gust Speed 13 mph    
Visibility 10 miles    
Events      
T = Trace of Precipitation, MM = Missing Value Source: NWS Daily Summary

Daily Weather History Graph

Daily Weather History Graph

Search for Another Location

Airport or City:

Trip Planner

Search our weather history database for the weather conditions in past years. The results will help you decide how hot, cold, wet, or windy it might be!

Date:

Astronomy

Feb. 06, 2014 Rise Set
Actual Time 7:20 AM MST 6:04 PM MST
Civil Twilight 6:54 AM MST 6:30 PM MST
Nautical Twilight 6:24 AM MST 6:59 PM MST
Astronomical Twilight 5:55 AM MST 7:28 PM MST
Moon 11:39 AM MST (2/6) 12:39 AM MST (2/6)
Length of Visible Light 11h 35m
Length of Day
10h 44m
Waxing Crescent, 50% of the Moon is Illuminated
Feb 6
Waxing Crescent
Feb 6
First Quarter
Feb 14
Full
Feb 22
Last Quarter
Mar 1
New

Hourly Weather History & Observations

Time (MST) Temp. Dew Point Humidity Pressure Visibility Wind Dir Wind Speed Gust Speed Precip Events Conditions
12:51 AM 50.0 °F 33.1 °F 52% 30.00 in 10.0 mi East 5.8 mph - N/A   Clear
1:51 AM 50.0 °F 33.1 °F 52% 29.99 in 10.0 mi East 5.8 mph - N/A   Clear
2:51 AM 48.0 °F 33.1 °F 56% 29.99 in 10.0 mi ESE 8.1 mph - N/A   Clear
3:51 AM 48.0 °F 33.1 °F 56% 29.99 in 10.0 mi SSE 6.9 mph - N/A   Clear
4:51 AM 48.0 °F 33.1 °F 56% 30.00 in 10.0 mi East 4.6 mph - N/A   Scattered Clouds
5:51 AM 48.0 °F 33.1 °F 56% 30.00 in 10.0 mi East 8.1 mph - N/A   Mostly Cloudy
6:51 AM 48.9 °F 32.0 °F 52% 30.00 in 10.0 mi East 8.1 mph - N/A   Mostly Cloudy
7:51 AM 48.9 °F 33.1 °F 54% 30.01 in 10.0 mi SE 8.1 mph - N/A   Overcast
8:51 AM 50.0 °F 33.1 °F 52% 30.04 in 10.0 mi East 5.8 mph - N/A   Overcast
9:51 AM 52.0 °F 33.1 °F 49% 30.03 in 10.0 mi ESE 5.8 mph - N/A   Overcast
10:51 AM 54.0 °F 33.1 °F 45% 30.04 in 10.0 mi SE 4.6 mph - N/A   Overcast
11:51 AM 55.0 °F 34.0 °F 45% 30.03 in 10.0 mi ESE 3.5 mph - N/A   Overcast
12:51 PM 57.0 °F 33.1 °F 40% 29.99 in 10.0 mi SSE 4.6 mph - N/A   Mostly Cloudy
1:51 PM 60.1 °F 32.0 °F 35% 29.95 in 10.0 mi SE 5.8 mph - N/A   Mostly Cloudy
2:51 PM 61.0 °F 32.0 °F 34% 29.93 in 10.0 mi East 6.9 mph - N/A   Mostly Cloudy
3:51 PM 61.0 °F 32.0 °F 34% 29.92 in 10.0 mi East 6.9 mph - N/A   Mostly Cloudy
4:51 PM 61.0 °F 30.9 °F 32% 29.91 in 10.0 mi East 6.9 mph - N/A   Overcast
5:51 PM 61.0 °F 32.0 °F 34% 29.91 in 10.0 mi South 3.5 mph - N/A   Overcast
6:51 PM 60.1 °F 33.1 °F 36% 29.91 in 10.0 mi Calm Calm - N/A   Overcast
7:51 PM 59.0 °F 32.0 °F 36% 29.92 in 10.0 mi SSE 4.6 mph - N/A   Overcast
8:51 PM 59.0 °F 33.1 °F 38% 29.91 in 10.0 mi East 4.6 mph - N/A   Overcast
9:51 PM 59.0 °F 33.1 °F 38% 29.91 in 10.0 mi East 3.5 mph - N/A   Overcast
10:51 PM 57.0 °F 35.1 °F 44% 29.92 in 10.0 mi East 4.6 mph - N/A   Overcast
11:51 PM 57.0 °F 35.1 °F 44% 29.92 in 10.0 mi East 4.6 mph - N/A   Overcast